�������l�o���
Date,Time,MP-1(��Sv/h),MP-2(��Sv/h),MP-3(��Sv/h),MP-4(��Sv/h),MP-5(��Sv/h),MP-6(��Sv/h),MP-7(��Sv/h),MP-8(��Sv/h),����,����(m/s),���J
2018/01/24,00:00,0.727,1.223,0.799,1.440,0.966,0.441,0.799,0.793,�k�k��,4.3,��
2018/01/24,00:10,0.726,1.225,0.796,1.439,0.965,0.442,0.801,0.794,�k�k��,2.6,��
2018/01/24,00:20,0.725,1.222,0.795,1.439,0.965,0.443,0.800,0.794,�k��,4.6,��
2018/01/24,00:30,0.727,1.224,0.796,1.442,0.963,0.443,0.800,0.795,�k��,6.7,��
2018/01/24,00:40,0.728,1.222,0.794,1.440,0.965,0.441,0.802,0.794,�k��,7.9,��
2018/01/24,00:50,0.728,1.223,0.796,1.442,0.966,0.441,0.802,0.793,�k��,8.2,��
2018/01/24,01:00,0.727,1.223,0.797,1.442,0.964,0.442,0.802,0.794,�k��,7.8,��
2018/01/24,01:10,0.727,1.224,0.797,1.441,0.966,0.442,0.802,0.795,���k��,5.6,��
2018/01/24,01:20,0.728,1.225,0.798,1.444,0.964,0.441,0.800,0.794,���k��,3.3,��
2018/01/24,01:30,0.725,1.224,0.795,1.446,0.965,0.442,0.801,0.796,��,1.7,��
2018/01/24,01:40,0.727,1.225,0.795,1.442,0.966,0.442,0.802,0.795,��쓌,3.2,��
2018/01/24,01:50,0.727,1.226,0.798,1.442,0.966,0.443,0.800,0.795,��,1.9,��
2018/01/24,02:00,0.730,1.224,0.796,1.443,0.965,0.442,0.800,0.793,��,2.3,��
2018/01/24,02:10,0.726,1.226,0.795,1.444,0.966,0.443,0.802,0.793,�쐼,3.0,��
2018/01/24,02:20,0.728,1.226,0.797,1.441,0.963,0.444,0.799,0.795,��쐼,3.3,��
2018/01/24,02:30,0.727,1.226,0.798,1.444,0.967,0.443,0.800,0.795,��,5.3,��
2018/01/24,02:40,0.726,1.225,0.799,1.445,0.966,0.443,0.801,0.797,��,6.2,��
2018/01/24,02:50,0.728,1.225,0.799,1.444,0.965,0.442,0.801,0.796,��쐼,5.7,��
2018/01/24,03:00,0.725,1.226,0.796,1.446,0.965,0.443,0.804,0.793,��쐼,5.5,��
2018/01/24,03:10,0.725,1.227,0.797,1.446,0.963,0.443,0.800,0.795,��쐼,5.3,��
2018/01/24,03:20,0.726,1.226,0.799,1.446,0.965,0.443,0.802,0.796,��쐼,5.3,��
2018/01/24,03:30,0.726,1.225,0.797,1.445,0.964,0.443,0.802,0.795,�쐼,5.3,��
2018/01/24,03:40,0.725,1.225,0.797,1.446,0.966,0.443,0.802,0.794,�쐼,6.1,��
2018/01/24,03:50,0.727,1.224,0.795,1.446,0.963,0.442,0.803,0.795,���쐼,6.8,��
2018/01/24,04:00,0.725,1.225,0.796,1.446,0.965,0.442,0.802,0.797,���쐼,8.0,��
2018/01/24,04:10,0.726,1.226,0.794,1.447,0.965,0.444,0.802,0.794,��,7.3,��
2018/01/24,04:20,0.728,1.225,0.799,1.447,0.966,0.442,0.802,0.796,���k��,7.3,��
2018/01/24,04:30,0.729,1.228,0.799,1.448,0.967,0.442,0.803,0.795,���k��,8.0,��
2018/01/24,04:40,0.730,1.227,0.797,1.448,0.966,0.443,0.803,0.795,���k��,7.3,��
2018/01/24,04:50,0.728,1.227,0.798,1.449,0.965,0.443,0.802,0.795,���k��,7.8,��
2018/01/24,05:00,0.728,1.227,0.799,1.448,0.967,0.444,0.804,0.798,���k��,8.5,��
2018/01/24,05:10,0.730,1.226,0.799,1.449,0.965,0.442,0.804,0.796,��,9.5,��
2018/01/24,05:20,0.728,1.228,0.799,1.448,0.967,0.444,0.801,0.796,��,7.2,��
2018/01/24,05:30,0.729,1.225,0.797,1.449,0.967,0.442,0.802,0.796,��,7.3,��
2018/01/24,05:40,0.728,1.225,0.797,1.450,0.968,0.442,0.805,0.795,��,7.4,��
2018/01/24,05:50,0.729,1.228,0.797,1.450,0.965,0.443,0.804,0.797,���쐼,8.9,��
2018/01/24,06:00,0.729,1.227,0.797,1.449,0.968,0.444,0.804,0.796,���쐼,9.0,��
2018/01/24,06:10,0.728,1.227,0.796,1.448,0.966,0.442,0.803,0.797,��,6.8,��
2018/01/24,06:20,0.728,1.225,0.798,1.448,0.964,0.443,0.804,0.798,���쐼,5.9,��
2018/01/24,06:30,0.729,1.226,0.798,1.450,0.962,0.444,0.804,0.796,���쐼,7.1,��
2018/01/24,06:40,0.729,1.225,0.800,1.448,0.967,0.442,0.804,0.795,���쐼,7.7,��
2018/01/24,06:50,0.728,1.226,0.797,1.449,0.967,0.441,0.802,0.796,���쐼,9.2,��
2018/01/24,07:00,0.728,1.225,0.799,1.450,0.964,0.442,0.806,0.797,��,8.3,��
2018/01/24,07:10,0.727,1.229,0.798,1.450,0.964,0.443,0.802,0.797,��,7.2,��
2018/01/24,07:20,0.727,1.227,0.798,1.451,0.963,0.443,0.803,0.797,��,6.3,��
2018/01/24,07:30,0.727,1.227,0.798,1.449,0.965,0.444,0.803,0.796,���쐼,4.5,��
2018/01/24,07:40,0.730,1.228,0.799,1.450,0.967,0.442,0.804,0.795,���쐼,4.5,��
2018/01/24,07:50,0.730,1.227,0.797,1.450,0.968,0.443,0.804,0.797,���쐼,4.7,��
2018/01/24,08:00,0.729,1.226,0.801,1.451,0.968,0.444,0.804,0.795,�쐼,7.3,��
2018/01/24,08:10,0.729,1.226,0.799,1.451,0.967,0.442,0.804,0.796,���쐼,7.0,��
2018/01/24,08:20,0.733,1.227,0.798,1.451,0.967,0.441,0.804,0.797,�쐼,6.7,��
2018/01/24,08:30,0.730,1.226,0.798,1.451,0.967,0.443,0.805,0.798,�쐼,6.5,��
2018/01/24,08:40,0.731,1.226,0.799,1.453,0.968,0.444,0.806,0.798,�쐼,7.0,��
2018/01/24,08:50,0.731,1.225,0.800,1.449,0.967,0.444,0.805,0.795,�쐼,6.5,��
2018/01/24,09:00,0.729,1.228,0.800,1.451,0.971,0.444,0.805,0.797,���쐼,8.4,��
2018/01/24,09:10,0.731,1.228,0.799,1.452,0.968,0.444,0.807,0.798,���쐼,8.8,��
2018/01/24,09:20,0.731,1.228,0.801,1.451,0.970,0.447,0.805,0.796,�쐼,9.3,��
2018/01/24,09:30,0.732,1.226,0.802,1.455,0.970,0.444,0.807,0.798,���쐼,9.0,��
2018/01/24,09:40,0.732,1.229,0.803,1.454,0.970,0.444,0.807,0.797,���쐼,8.5,��
2018/01/24,09:50,0.735,1.233,0.801,1.455,0.970,0.445,0.806,0.797,���쐼,8.2,��
2018/01/24,10:00,0.733,1.232,0.803,1.453,0.969,0.446,0.804,0.797,�쐼,7.1,��
2018/01/24,10:10,0.732,1.230,0.801,1.456,0.970,0.446,0.806,0.798,�쐼,6.3,��
2018/01/24,10:20,0.734,1.232,0.806,1.454,0.972,0.445,0.805,0.798,���쐼,7.1,��
2018/01/24,10:30,0.735,1.229,0.805,1.456,0.971,0.445,0.804,0.799,���쐼,7.0,��
2018/01/24,10:40,0.734,1.232,0.804,1.453,0.972,0.446,0.805,0.800,���쐼,6.2,��
2018/01/24,10:50,0.735,1.236,0.804,1.457,0.974,0.445,0.806,0.799,���쐼,6.6,��
2018/01/24,11:00,0.735,1.234,0.804,1.456,0.972,0.446,0.805,0.800,��,8.0,��
2018/01/24,11:10,0.734,1.233,0.806,1.458,0.975,0.447,0.804,0.800,��,6.6,��
2018/01/24,11:20,0.737,1.236,0.806,1.460,0.976,0.446,0.805,0.799,���k��,7.2,�L
2018/01/24,11:30,0.736,1.233,0.808,1.458,0.978,0.446,0.804,0.800,���k��,5.0,�L
2018/01/24,11:40,0.736,1.233,0.806,1.456,0.975,0.446,0.805,0.799,���쐼,8.1,�L
2018/01/24,11:50,0.736,1.235,0.805,1.454,0.974,0.448,0.805,0.799,���쐼,6.2,�L
2018/01/24,12:00,0.734,1.235,0.806,1.453,0.975,0.448,0.806,0.799,���쐼,7.5,��
2018/01/24,12:10,0.735,1.233,0.803,1.457,0.974,0.448,0.807,0.801,��,5.8,��
2018/01/24,12:20,0.734,1.234,0.804,1.460,0.974,0.448,0.807,0.801,���k��,6.4,��
2018/01/24,12:30,0.734,1.236,0.806,1.457,0.977,0.447,0.807,0.798,�k��,9.2,�L
2018/01/24,12:40,0.736,1.237,0.807,1.458,0.975,0.446,0.809,0.798,�k��,7.2,�L
2018/01/24,12:50,0.738,1.236,0.807,1.458,0.979,0.447,0.808,0.800,�k�k��,5.2,��
2018/01/24,13:00,0.738,1.234,0.806,1.455,0.978,0.448,0.808,0.800,�k�k��,4.9,��
2018/01/24,13:10,0.737,1.233,0.808,1.456,0.982,0.448,0.808,0.800,�k��,4.0,��
2018/01/24,13:20,0.739,1.235,0.806,1.457,0.981,0.447,0.808,0.801,���k��,5.4,��
2018/01/24,13:30,0.737,1.238,0.805,1.459,0.980,0.448,0.809,0.801,���k��,8.3,��
2018/01/24,13:40,0.738,1.237,0.808,1.456,0.983,0.447,0.809,0.800,���k��,12.7,��
2018/01/24,13:50,0.738,1.239,0.808,1.457,0.983,0.446,0.810,0.802,��,9.2,��
2018/01/24,14:00,0.741,1.235,0.807,1.460,0.982,0.446,0.809,0.801,��,10.3,��
2018/01/24,14:10,0.738,1.238,0.809,1.458,0.983,0.446,0.807,0.803,��,9.9,��
2018/01/24,14:20,0.738,1.238,0.809,1.460,0.982,0.447,0.808,0.799,��,9.4,��
2018/01/24,14:30,0.738,1.240,0.808,1.460,0.984,0.446,0.807,0.803,��,7.9,��
2018/01/24,14:40,0.737,1.239,0.807,1.459,0.983,0.446,0.809,0.801,���k��,8.7,��
2018/01/24,14:50,0.737,1.237,0.809,1.456,0.986,0.447,0.810,0.802,�k��,10.5,��
2018/01/24,15:00,0.738,1.240,0.805,1.458,0.985,0.444,0.809,0.802,�k��,6.1,��
2018/01/24,15:10,0.739,1.239,0.804,1.460,0.985,0.444,0.809,0.801,���k��,8.0,��
2018/01/24,15:20,0.738,1.241,0.807,1.460,0.987,0.444,0.809,0.800,�k��,5.9,��
2018/01/24,15:30,0.736,1.242,0.808,1.460,0.987,0.444,0.810,0.802,���k��,9.2,��
2018/01/24,15:40,0.738,1.242,0.806,1.459,0.990,0.445,0.808,0.801,�k��,11.4,��
2018/01/24,15:50,0.738,1.242,0.806,1.458,0.989,0.444,0.809,0.801,���k��,9.4,��
2018/01/24,16:00,0.736,1.241,0.806,1.459,0.991,0.446,0.809,0.802,���k��,8.4,��
2018/01/24,16:10,0.736,1.244,0.806,1.460,0.991,0.444,0.807,0.801,���k��,8.6,��
2018/01/24,16:20,0.736,1.241,0.806,1.462,0.990,0.445,0.805,0.801,���k��,9.6,��
2018/01/24,16:30,0.737,1.242,0.808,1.461,0.990,0.445,0.805,0.800,�k��,9.7,��
2018/01/24,16:40,0.739,1.243,0.809,1.460,0.989,0.444,0.806,0.802,���k��,9.7,��
2018/01/24,16:50,0.737,1.243,0.806,1.460,0.988,0.446,0.806,0.802,���k��,11.0,��
2018/01/24,17:00,0.739,1.241,0.808,1.459,0.989,0.444,0.806,0.801,���k��,12.8,��
2018/01/24,17:10,0.737,1.241,0.809,1.456,0.987,0.445,0.806,0.803,���k��,9.5,��
2018/01/24,17:20,0.736,1.240,0.807,1.459,0.988,0.444,0.805,0.802,���k��,11.8,��
2018/01/24,17:30,0.738,1.243,0.809,1.458,0.987,0.445,0.805,0.802,���k��,10.4,��
2018/01/24,17:40,0.736,1.240,0.806,1.461,0.986,0.445,0.804,0.802,���k��,10.7,��
2018/01/24,17:50,0.738,1.241,0.809,1.459,0.989,0.445,0.806,0.801,���k��,11.3,��
2018/01/24,18:00,0.737,1.240,0.807,1.460,0.988,0.446,0.805,0.803,���k��,8.7,��
2018/01/24,18:10,0.738,1.242,0.807,1.460,0.987,0.445,0.805,0.803,���k��,8.7,��
2018/01/24,18:20,0.738,1.245,0.806,1.458,0.987,0.443,0.804,0.802,���k��,8.2,��
2018/01/24,18:30,0.738,1.243,0.807,1.460,0.989,0.443,0.804,0.799,���k��,6.9,��
2018/01/24,18:40,0.736,1.242,0.806,1.461,0.988,0.444,0.804,0.800,���k��,8.4,��
2018/01/24,18:50,0.735,1.242,0.808,1.463,0.989,0.443,0.804,0.801,���k��,9.0,��
2018/01/24,19:00,0.737,1.244,0.809,1.460,0.989,0.444,0.805,0.799,���k��,6.8,�L
2018/01/24,19:10,0.738,1.243,0.810,1.461,0.990,0.445,0.809,0.802,���k��,9.2,��
2018/01/24,19:20,0.739,1.246,0.810,1.463,0.993,0.448,0.810,0.801,���k��,8.2,�L
2018/01/24,19:30,0.739,1.246,0.811,1.464,0.991,0.449,0.808,0.803,��,8.6,�L
2018/01/24,19:40,0.740,1.245,0.813,1.464,0.993,0.451,0.807,0.801,��,6.6,�L
2018/01/24,19:50,0.739,1.246,0.811,1.460,0.990,0.450,0.807,0.801,���k��,6.3,�L
2018/01/24,20:00,0.740,1.246,0.811,1.463,0.987,0.450,0.805,0.801,��,4.7,��
2018/01/24,20:10,0.740,1.245,0.810,1.460,0.985,0.449,0.806,0.800,��,3.4,��
2018/01/24,20:20,0.739,1.245,0.810,1.460,0.986,0.449,0.804,0.800,��,2.8,��
2018/01/24,20:30,0.740,1.244,0.810,1.460,0.985,0.447,0.804,0.801,���k��,3.6,��
2018/01/24,20:40,0.737,1.243,0.809,1.456,0.986,0.447,0.806,0.799,�k��,2.8,��
2018/01/24,20:50,0.738,1.244,0.808,1.460,0.986,0.446,0.805,0.798,�k��,3.9,��
2018/01/24,21:00,0.738,1.244,0.809,1.461,0.986,0.446,0.804,0.800,�k��,4.3,��
2018/01/24,21:10,0.739,1.243,0.809,1.456,0.986,0.446,0.805,0.798,���k��,4.0,��
2018/01/24,21:20,0.738,1.244,0.806,1.458,0.985,0.443,0.805,0.799,���k��,3.3,��
2018/01/24,21:30,0.738,1.245,0.808,1.460,0.988,0.444,0.804,0.798,���k��,2.9,�L
2018/01/24,21:40,0.736,1.243,0.808,1.461,0.984,0.445,0.805,0.798,�k��,2.6,�L
2018/01/24,21:50,0.737,1.244,0.807,1.459,0.986,0.444,0.805,0.800,��,3.6,��
2018/01/24,22:00,0.737,1.243,0.808,1.460,0.985,0.445,0.805,0.798,��,3.6,��
2018/01/24,22:10,0.739,1.244,0.808,1.459,0.984,0.443,0.802,0.797,���쐼,4.8,��
2018/01/24,22:20,0.736,1.241,0.808,1.457,0.981,0.443,0.804,0.797,���쐼,7.7,��
2018/01/24,22:30,0.736,1.240,0.805,1.457,0.983,0.443,0.805,0.799,���쐼,8.0,��
2018/01/24,22:40,0.738,1.242,0.806,1.456,0.982,0.442,0.804,0.800,��,7.9,��
2018/01/24,22:50,0.737,1.242,0.805,1.456,0.980,0.443,0.806,0.800,���쐼,6.5,��
2018/01/24,23:00,0.735,1.241,0.804,1.457,0.980,0.442,0.805,0.799,��,8.2,��
2018/01/24,23:10,0.735,1.240,0.805,1.456,0.980,0.440,0.804,0.797,��,7.4,��
2018/01/24,23:20,0.736,1.239,0.803,1.455,0.980,0.441,0.802,0.798,���쐼,6.1,��
2018/01/24,23:30,0.734,1.239,0.802,1.456,0.980,0.441,0.806,0.797,��,5.5,��
2018/01/24,23:40,0.735,1.241,0.805,1.457,0.977,0.441,0.804,0.798,��,5.3,��
2018/01/24,23:50,0.735,1.240,0.802,1.455,0.980,0.440,0.806,0.798,��,4.7,��
